THORAD AGENA D DEB, 4614

Orbit data source: Space-Track

THORAD AGENA D DEB, 4614 is space debris in SSO originally from a launch on Wed, 08 Apr 1970 UTC launched from the Air Force Western Test Range (AFWTR). Debris objects in space refer to the collection of defunct objects orbiting the Earth. Examples of debris include non-operational satellites, rocket bodies, and fragments generated from explosions, collisions, or faulty payload assembly.

Loading next visibility...
Identifier
4614, 1970-025S
Orbit
SSO
Country
Flag of USUS
Related business
Manufacturer
Unknown
Mission
Spacecraft
Bus & Motor
Unknown
Mass
Unknown
Launch date (UTC)
1970-04-08 (56 years ago)
Launch vehicle
Unknown
Launch site
Air Force Western Test Range (AFWTR)
Object type
Payload
Rocket body
Debris
Shape & HBR
Unknown shape, 0.5 m
Radar Cross Section
Medium (>0.1 m² and <1 m²)

Expand to show TLE details & history
Last TLE update: 10 hours ago

TLE from 10 hours ago
0 THORAD AGENA D DEB
1 04614U 70025S   25340.94714526  .00001523  00000-0  11998-2 0  9992
2 04614 100.1115 342.3205 0078416 254.4779 104.7709 13.92149971799806
Epoch: 2025-12-06T22:43Z
TLE epoch observation values (Epoch: 2025-12-06T22:43:53.350Z)
Latitude
-0.00003°
Longitude
-74.61936°
Altitude
938.949 km
Speed
7.375 km/s
True Right ascension
22h 49m 16s
True Declination
0° 00' 00"
Sunlit
Object was in daylight at epoch
Visualization orbit readout
Latitude
Unknown
Longitude
Unknown
Altitude
Unknown
Speed
Unknown
Apparent Right ascension
Unknown
Apparent Declination
Unknown
Sunlit
N/A
Visualization observer readout
Local Sidereal Time
06:24:28
Azimuth
Unknown
Elevation
Unknown
Doppler factor
Unknown
Orbital elements
Apogee altitude
975.589 km
Perigee altitude
861.157 km
Semi-major axis
7,296.51 km
Eccentricity
0.00784
Inclination
100.1115°
RAAN
342.3205°
Arg. of periapsis
254.4779°
True anomaly
105.63759°
Mean anomaly
104.7709°
Eccentric anomaly
105.20446°
Mean motion
3.48233 °/min
Orbital period
103.38 mins
BSTAR
0.0011998
Loading maneuver chart data...
Computing Atmospheric mass density...

Documentation

Showing up to 5 results
|